Weather History for Wendover, UT

Change the Weather History Date:

Tuesday, October 9, 2012

  Actual Average Record
Temperature  
Mean Temperature 54 °F -  
Max Temperature 68 °F 66 °F 89 °F (2003)
Min Temperature 39 °F 45 °F 30 °F (1968)
Degree Days  
Heating Degree Days 12    
Growing Degree Days 4 (Base 50)    
Moisture  
Dew Point 19 °F    
Average Humidity 27    
Maximum Humidity 45    
Minimum Humidity 15    
Precipitation  
Precipitation 0.00 in - - ()
Sea Level Pressure  
Sea Level Pressure 30.02 in    
Wind  
Wind Speed 3 mph (East)    
Max Wind Speed 8 mph    
Max Gust Speed -    
Visibility 9 miles    
Events      
Averages and records for this station are not official NWS values.
T = Trace of Precipitation, MM = Missing Value Source: NWS Daily Summary

Daily Weather History Graph

Daily Weather History Graph

Search for Another Location

Airport:

Trip Planner

Search our weather history database for the weather conditions in past years. The results will help you decide how hot, cold, wet, or windy it might be!

Date:

Astronomy

Oct. 09, 2012 Rise Set
Actual Time 7:41 AM MDT 7:04 PM MDT
Civil Twilight 7:14 AM MDT 7:31 PM MDT
Nautical Twilight 6:42 AM MDT 8:03 PM MDT
Astronomical Twilight 6:10 AM MDT 8:35 PM MDT
Moon 1:20 AM MDT (10/9) 3:35 PM MDT (10/9)
Length of Visible Light 12h 17m
Length of Day
11h 22m
Last Quarter, 36% of the Moon is Illuminated
Oct 9
Last Quarter
Oct 15
New
Oct 21
First Quarter
Oct 29
Full
Nov 6
Last Quarter

Hourly Weather History & Observations

Time (MDT) Temp. Windchill Dew Point Humidity Pressure Visibility Wind Dir Wind Speed Gust Speed Precip Events Conditions
12:15 AM 50.0 °F - 15.8 °F 26% 29.96 in 10.0 mi WSW 6.9 mph - N/A   Clear
12:35 AM 48.2 °F - 15.8 °F 27% 29.97 in 10.0 mi WSW 4.6 mph - N/A   Clear
12:55 AM 48.2 °F - 15.8 °F 27% 29.96 in 10.0 mi West 3.5 mph - N/A   Clear
1:15 AM 50.0 °F - 15.8 °F 26% 29.96 in 10.0 mi Calm Calm - N/A   Clear
1:55 AM 48.2 °F - 17.6 °F 30% 29.97 in 10.0 mi Calm Calm - N/A   Clear
2:55 AM 46.4 °F - 17.6 °F 32% 29.99 in 10.0 mi Calm Calm - N/A   Clear
3:15 AM 46.4 °F 44.3 °F 17.6 °F 32% 29.99 in 10.0 mi NNE 4.6 mph - N/A   Clear
3:35 AM 44.6 °F - 19.4 °F 37% 29.99 in 10.0 mi Calm Calm - N/A   Clear
3:55 AM 44.6 °F - 19.4 °F 37% 29.99 in 10.0 mi Calm Calm - N/A   Clear
4:15 AM 44.6 °F - 19.4 °F 37% 29.99 in 10.0 mi Calm Calm - N/A   Clear
4:36 AM 42.8 °F 40.1 °F 19.4 °F 39% 30.00 in 10.0 mi ENE 4.6 mph - N/A   Clear
4:55 AM 42.8 °F 39.3 °F 19.4 °F 39% 30.00 in 10.0 mi ENE 5.8 mph - N/A   Clear
5:15 AM 42.8 °F - 19.4 °F 39% 30.00 in 10.0 mi Calm Calm - N/A   Clear
5:55 AM 44.6 °F - 19.4 °F 37% 30.00 in 10.0 mi Calm Calm - N/A   Clear
6:16 AM 39.2 °F - 19.4 °F 45% 30.01 in 10.0 mi Calm Calm - N/A   Clear
6:35 AM 44.6 °F 43.1 °F 21.2 °F 39% 30.01 in 10.0 mi NE 3.5 mph - N/A   Clear
6:55 AM 42.8 °F - 19.4 °F 39% 30.01 in 10.0 mi Calm Calm - N/A   Clear
7:15 AM 44.6 °F 43.1 °F 19.4 °F 37% 30.01 in 10.0 mi ENE 3.5 mph - N/A   Clear
7:35 AM 41.0 °F 37.1 °F 19.4 °F 42% 30.02 in 10.0 mi NE 5.8 mph - N/A   Clear
7:55 AM 41.0 °F 39.0 °F 19.4 °F 42% 30.02 in 10.0 mi NNW 3.5 mph - N/A   Clear
8:15 AM 41.0 °F 39.0 °F 19.4 °F 42% 30.03 in 10.0 mi NW 3.5 mph - N/A   Clear
8:35 AM 44.6 °F - 19.4 °F 37% 30.04 in 10.0 mi Calm Calm - N/A   Clear
8:55 AM 46.4 °F 45.2 °F 21.2 °F 37% 30.05 in 10.0 mi SE 3.5 mph - N/A   Clear
9:15 AM 46.4 °F - 19.4 °F 34% 30.05 in 10.0 mi Calm Calm - N/A   Clear
9:35 AM 48.2 °F - 19.4 °F 32% 30.05 in 10.0 mi ENE 4.6 mph - N/A   Clear
10:15 AM 51.8 °F - 19.4 °F 28% 30.06 in 10.0 mi SE 3.5 mph - N/A   Clear
10:35 AM 53.6 °F - 19.4 °F 26% 30.06 in 10.0 mi ESE 4.6 mph - N/A   Clear
10:55 AM 53.6 °F - 19.4 °F 26% 30.07 in 10.0 mi East 6.9 mph - N/A   Clear
11:15 AM 55.4 °F - 19.4 °F 25% 30.07 in 9.0 mi ENE 8.1 mph - N/A   Clear
11:55 AM 57.2 °F - 19.4 °F 23% 30.07 in 4.0 mi East 8.1 mph - N/A   Clear
12:15 PM 57.2 °F - 19.4 °F 23% 30.07 in 4.0 mi East 8.1 mph - N/A   Clear
12:35 PM 59.0 °F - 17.6 °F 20% 30.06 in 3.0 mi East 6.9 mph - N/A   Clear
12:55 PM 60.8 °F - 19.4 °F 20% 30.06 in 1.5 mi East 5.8 mph - N/A   Clear
1:15 PM 62.6 °F - 19.4 °F 19% 30.06 in 2.0 mi East 4.6 mph - N/A   Clear
1:35 PM 62.6 °F - 19.4 °F 19% 30.05 in 1.5 mi SE 3.5 mph - N/A   Clear
1:55 PM 64.4 °F - 19.4 °F 18% 30.05 in 10.0 mi ESE 6.9 mph - N/A   Clear
2:15 PM 64.4 °F - 19.4 °F 18% 30.04 in 10.0 mi ESE 6.9 mph - N/A   Clear
2:35 PM 64.4 °F - 19.4 °F 18% 30.04 in 10.0 mi ESE 6.9 mph - N/A   Clear
2:56 PM 66.2 °F - 19.4 °F 17% 30.04 in 10.0 mi East 5.8 mph - N/A   Clear
3:15 PM 66.2 °F - 19.4 °F 17% 30.03 in 10.0 mi East 6.9 mph - N/A   Clear
3:55 PM 68.0 °F - 19.4 °F 16% 30.02 in 10.0 mi Calm Calm - N/A   Clear
4:15 PM 68.0 °F - 17.6 °F 15% 30.02 in 10.0 mi SSE 3.5 mph - N/A   Clear
4:35 PM 68.0 °F - 17.6 °F 15% 30.02 in 10.0 mi Calm Calm - N/A   Clear
4:55 PM 68.0 °F - 17.6 °F 15% 30.02 in 10.0 mi Calm Calm - N/A   Clear
5:15 PM 68.0 °F - 17.6 °F 15% 30.01 in 10.0 mi Calm Calm - N/A   Clear
5:55 PM 66.2 °F - 17.6 °F 15% 30.01 in 10.0 mi Calm Calm - N/A   Clear
5:56 PM 66.2 °F - 17.6 °F 15% 30.01 in 10.0 mi Calm Calm - N/A   Clear
6:15 PM 66.2 °F - 17.6 °F 15% 30.00 in 10.0 mi Calm Calm - N/A   Clear
6:35 PM 66.2 °F - 17.6 °F 15% 30.00 in 10.0 mi Calm Calm - N/A   Clear
6:55 PM 66.2 °F - 17.6 °F 15% 29.99 in 10.0 mi Calm Calm - N/A   Clear
7:15 PM 64.4 °F - 15.8 °F 15% 29.99 in 10.0 mi Calm Calm - N/A   Clear
7:35 PM 59.0 °F - 24.8 °F 27% 29.99 in 10.0 mi Calm Calm - N/A   Clear
7:55 PM 60.8 °F - 21.2 °F 22% 30.00 in 10.0 mi West 3.5 mph - N/A   Clear
8:15 PM 57.2 °F - 24.8 °F 29% 30.00 in 10.0 mi Calm Calm - N/A   Clear
8:35 PM 55.4 °F - 19.4 °F 25% 30.01 in 10.0 mi WSW 3.5 mph - N/A   Clear
8:55 PM 55.4 °F - 21.2 °F 26% 30.01 in 10.0 mi West 3.5 mph - N/A   Clear
9:35 PM 53.6 °F - 19.4 °F 26% 30.01 in 10.0 mi WNW 4.6 mph - N/A   Clear
9:55 PM 53.6 °F - 21.2 °F 28% 30.02 in 10.0 mi WNW 3.5 mph - N/A   Clear
10:15 PM 51.8 °F - 21.2 °F 30% 30.02 in 10.0 mi Calm Calm - N/A   Clear
10:35 PM 53.6 °F - 21.2 °F 28% 30.02 in 10.0 mi Calm Calm - N/A   Clear
10:55 PM 53.6 °F - 23.0 °F 30% 30.02 in 10.0 mi Calm Calm - N/A   Clear
11:15 PM 50.0 °F - 17.6 °F 28% 30.03 in 10.0 mi Calm Calm - N/A   Clear
11:36 PM 51.8 °F - 21.2 °F 30% 30.03 in 10.0 mi Calm Calm - N/A   Clear
11:55 PM 48.2 °F - 26.6 °F 43% 30.03 in 10.0 mi ESE 4.6 mph - N/A   Clear
11:56 PM 50.0 °F - 26.6 °F 40% 30.03 in 10.0 mi ESE 4.6 mph - N/A   Clear